Погода в Покровке

Погода в Покровке : погода сейчас, прогноз погоды и архив. Всё, что Вы хотите узнать о погоде в Покровке!

Поиск расширенной информации на нашем сайте:

Полезная информация: Марс, юпитер, венера, все это космос

Другие новости

Новости СМИ2

Главная страница сайта

Новости сайта

03.07.2017

Напоминаем, что на нашем специализированном сайте Метеоцентр.Азия вы можете получить высокодетализированные автоматические прогнозы погоды по пунктам России, СНГ и мира в авиационном формате (включающие направление и скорость ветра, видимость, явления погоды, количество и форму облачности, нижнюю и верхнюю границу облачности).

Рекомендуем: заказать музыкантов

Погода в Покровке - сегодня

Время (UTC), дата Ветер
(°,м/с) 
Видим.   Явления Облачность Т
(°С)
Тd
(°С)
f(%) Тe
(°С)
Pmin
(гПа)
dP
(гПа)
Po
(мм)
O2
(г/м3)
Тmin Tmax R s Состояние
почвы
00 18.07.17 180 (Ю) 5{12}  20000 м    10/10 300 м 
[St]
+19.6 +17.2 86 +33  1009  0.3  754  279  +18.2         
03 18.07.17 190 (Ю) 7-14{14}  20000 м    10/8 300 м верхняя 
[St|Ci fib]
+20.9 +17.2 79 +34  1008  -1  753  278           
06 18.07.17 180 (Ю) 6-11{14}  20000 м    10/4 300 м верхняя 
[St|Ci fib]
+21.1 +17.7 81 +35  1006.6  -1.4  752  277           
09 18.07.17 180 (Ю) 6-11{14}  20000 м    10/10 300 м 
[St]
+19.1 +17.1 88 +31  1005.9  -0.6  751  279    +22.3       
12 18.07.17 190 (Ю) 6-12{13}  10 км  в посл. час морось  10/10 300 м 
[St]
+18.1 +17 93 +30  1006.3  0.3  752  280           
15 18.07.17 200 (Ю) 5-11{14}  10 км    10/10 300 м 
[St]
+18.6 +17.5 93 +32  1005.6  -0.7  751  279           
18 18.07.17 170 (Ю) 5{12}  10 км  гроза, ливневой дождь  10/10 300 м кучево-дожд. 
[Cb cap]
+18.5 +17.5 94 +32  1006.2  0.6  752  280           
21 18.07.17 200 (Ю) 4{13}  10 км  гроза, ливневой дождь  10/10 300 м кучево-дожд. 
[Cb cap]
+18.9 +18.1 95 +33  1005.6  -0.5  751  279  +18      влажная 
00 19.07.17 180 (Ю) 20000 м  гроза, ливневой дождь  10/10 600 м кучево-дожд. 
[Cb cap]
+19.8 +19 95 +36  1006.3  0.8  752  278           
03 19.07.17 180 (Ю) 10 км  гроза, ливневой дождь  10/10 600 м кучево-дожд. 
[Cb cap]
+20.5 +19.8 96 +39  1005.4  -0.9  751  277           
06 19.07.17 180 (Ю) 20000 м  слаб. ливневой дождь{гроза}  10/9 600 м кучево-дожд., верхняя 
[Cb cap|Ci fib]
+21.9 +20.6 92 +42  1004.2  -1.2  750  275           
09 19.07.17 230 (ЮЗ) 10 км  гроза, ливневой дождь  10/10 600 м кучево-дожд. 
[Cb cap]
+20.9 +19.8 93 +39  1005.4  1.2  751  276    +22.1  12     
12 19.07.17 180 (Ю) 4000 м  гроза, ливневой дождь  10/10 600 м кучево-дожд. 
[Cb cap]
+20 +19.2 95 +37  1004.2  -1.2  750  277           
15 19.07.17 190 (Ю) 10 км  {гроза, ливн. осадки}  4/4 600 м кучево-дожд. 
[Cb cap]
+19.8 +18.8 94 +37  1004.4  0.2  750  277           
18 19.07.17 060 (СВ) 10 км  слаб. ливневой дождь{гроза}  10/8 600 м кучево-дожд., верхняя 
[Cb cap|Ci fib]
+19.4 +18.7 96 +36  1005.3  0.9  751  278           
21 19.07.17 170 (Ю) 4000 м  слаб. ливневой дождь  10/10 600 м кучево-дожд. 
[Cb cap]
+19.6 +18.9 96 +37  1004.8  -0.5  751  278  +19.3    24    мокрая 
00 20.07.17 160 (Ю) 4000 м  ливневой дождь  10/10 600 м кучево-дожд. 
[Cb cap]
+20.4 +19.7 96 +38  1005.4  0.6  751  277           
03 20.07.17 200 (Ю) 20000 м  слаб. ливневой дождь  10/10 600 м кучево-дожд. 
[Cb cap]
+21.3 +20.5 95 +41  1004.1  -1.3  750  275           
06 20.07.17 180 (Ю) 20000 м  {ливн. осадки}  10/10 300 м 
[St]
+22.5 +21.5 94 +45  1003.1  -1  749  273           
09 20.07.17 180 (Ю) 20000 м    10/10 300 м 
[St]
+23.4 +22.1 92 +47  1003.2  -0.1  749  272    +23.6     
12 20.07.17 210 (ЮЗ) 2000 м  ливневой дождь  10/10 600 м кучево-дожд. 
[Cb cap]
+22.1 +21.3 95 +44  1003.7  0.6  750  274           
15 20.07.17 020 (С) 20000 м  {ливн. осадки}  10/10 600 м кучево-дожд. 
[Cb cap]
+21.5 +20.8 96 +42  1002.3  -1.3  749  274           
18 20.07.17 010 (С) 5{12}  1000 м  ливневой дождь  10/10 600 м кучево-дожд. 
[Cb cap]
+18.3 +17.6 96 +32  1002.7  0.3  749  279           
21 20.07.17 020 (С) 10 км  слаб. дождь{ливн. осадки}  10/4 300 м средняя 
[Frnb|As op]
+17.5 +16.8 96 +30  1003.8  750  280  +17.5    81    мокрая 
00 21.07.17 350 (С) 4000 м  в посл. час дождь{ливн. осадки}  10/8 300 м средняя 
[St|As op]
+18 +17.5 97 +31  1006.8  752  280  +16.7         
Время (UTC), дата Ветер
(°,м/с) 
Видим.   Явления Облачность Т
(°С)
Тd
(°С)
f(%) Тe
(°С)
Pmin
(гПа)
dP
(гПа)
Po
(мм)
O2
(г/м3)
Тmin Tmax R s Состояние
почвы

Для получения пояснительной информации подведите курсор к названию столбца.

ПОГОДА в Покровке - архив

Всё, что Вы хотите узнать о погоде в Покровке - удобно и подробно!

Выберите нужную дату (начиная с 1 января 2015* года) и нажмите кнопку "Найти".
Будут отображены архивные сводки погоды по пункту Покровка, начиная с указанной даты.


Отображать данные в формате CSV (для использования в таблицах Excel)


Внимание! Наш архив погоды предназначен исключительно для личного некоммерческого использования в познавательных целях. Если Вам необходимы официальные справки о состоянии погоды (для производственных, юридических, коммерческих и т.п. целей), обращайтесь в органы Росгидромета.

*Примечание: данная дата относится к архиву по метеостанциям СССР (Россия, СНГ, Балтия).
Архив по метеостанциям Зарубежной Европы и Азии (кроме Китая) хранится 10 дней, по другим регионам земного шара (Китай, Африка, Америка, Австралия, Океания) - 1 день.

Покровка - район местоположения метеостанции


Название, широта, долгота, высота метеостанции:
Покровка 43.9°ш. 131.7°д. 61 м над ур. моря [Российская Федерация]

Дополнительная информация

В oтличие oт бoльшинства пoгoдных сайтoв мы публикуем пoдрoбную метеoинфoрмацию в детальнoм прoфессиoнальнoм фoрмате.

Характеристики температуры и влажнoсти вoздуха измеряются на высoте 2 м в тени вдали oт зданий и деревьев.
Скoрoсть ветра измеряется на высoте 10 м (на урoвне рoста челoвека скoрoсть ветра ниже в 1.5-2 раза). Если метеoстанция нахoдится в гoрoде или в лесу, тo скoрoсть ветра занижена на 2-4 м/с пo сравнению с oткрытым местoм. Скoрoсть ветра над акватoриями крупных рек и oзёр, а также на вершинах хoлмoв на 2-5 м/с выше, чем в oбычных услoвиях.
Атмoсфернoе давление в разных тoчках местнoсти мoжет значительнo oтличаться oт давления на метеoстанции, в зависимoсти oт услoвий рельефа (при пoдъёме на 10 м давление пoнижается примернo на 1 мм рт.ст.).